This demonstration page uses our WeatherBlox Daily Observations layout. Learn more.

Left ArrowRight Arrow

41.86663, -103.66717

Hourly Observations for November 28, 2020

Temp ( °F °C ) Dew Point ( °F °C ) Humidity (%) Winds ( mph kmh ) Pressure ( in mb ) Visibility ( mi km ) Precip ( " mm )
12:53 am 00:53 Clear 21 -6.1 9 -12.8 59 59 Calm 30.17 1022 10 16 0.00 0.00
1:53 am 01:53 Clear 19 -7.2 9 -12.8 65 65 N 3 6 30.18 1022 10 16 0.00 0.00
2:53 am 02:53 Clear 19 -7.2 10 -12.2 68 68 N 6 9 30.18 1022 10 16 0.00 0.00
3:53 am 03:53 Clear 17 -8.3 9 -12.8 70 70 NW 9 15 30.17 1022 10 16 0.00 0.00
4:53 am 04:53 Clear 16 -8.9 9 -12.8 74 74 W 3 6 30.22 1023 10 16 0.00 0.00
5:53 am 05:53 Clear 16 -8.9 9 -12.8 74 74 NW 7 11 30.23 1024 10 16 0.00 0.00
6:53 am 06:53 Clear 16 -8.9 9 -12.8 74 74 W 6 9 30.24 1024 10 16 0.00 0.00
7:53 am 07:53 Sunny 22 -5.6 13 -10.6 68 68 WNW 7 11 30.22 1023 10 16 0.00 0.00
8:53 am 08:53 Sunny 34 1.1 17 -8.3 50 50 NW 9 15 30.17 1022 10 16 0.00 0.00
9:53 am 09:53 Sunny 43 6.1 16 -8.9 34 34 NW 13 20 30.15 1021 10 16 0.00 0.00
10:53 am 10:53 Sunny 48 8.9 15 -9.4 27 27 WNW 13 20 30.13 1020 10 16 0.00 0.00
11:53 am 11:53 Sunny 52 11.1 15 -9.4 23 23 WNW 10 17 30.09 1019 10 16 0.00 0.00
12:53 pm 12:53 Sunny 55 12.8 15 -9.4 20 20 WNW 9 15 30.05 1018 10 16 0.00 0.00
1:53 pm 13:53 Sunny 58 14.4 15 -9.4 18 18 NW 6 9 30.02 1017 10 16 0.00 0.00
2:53 pm 14:53 Sunny 58 14.4 15 -9.4 18 18 W 7 11 30.02 1017 10 16 0.00 0.00
3:53 pm 15:53 Sunny 55 12.8 15 -9.4 20 20 Calm 30.03 1017 10 16 0.00 0.00
4:53 pm 16:53 Clear 42 5.6 14 -10 32 32 Calm 30.07 1018 10 16 0.00 0.00
5:53 pm 17:53 Clear 37 2.8 13 -10.6 37 37 SSW 3 6 30.09 1019 10 16 0.00 0.00
6:53 pm 18:53 Clear 33 0.6 13 -10.6 43 43 WNW 8 13 30.11 1020 10 16 0.00 0.00
7:53 pm 19:53 Clear 31 -0.6 12 -11.1 45 45 WNW 7 11 30.12 1020 10 16 0.00 0.00
8:53 pm 20:53 Clear 30 -1.1 12 -11.1 47 47 NW 7 11 30.12 1020 10 16 0.00 0.00
9:53 pm 21:53 Clear 36 2.2 12 -11.1 37 37 WNW 9 15 30.12 1020 10 16 0.00 0.00
10:53 pm 22:53 Clear 39 3.9 12 -11.1 33 33 NNE 22 35 30.15 1021 10 16 0.00 0.00
11:53 pm 23:53 Clear 37 2.8 13 -10.6 37 37 N 16 26 30.21 1023 10 16 0.00 0.00

Powered by AerisWeather